EST,Max TemperatureF,Mean TemperatureF,Min TemperatureF,Max Dew PointF,MeanDew PointF,Min DewpointF,Max Humidity, Mean Humidity, Min Humidity, Max Sea Level PressureIn, Mean Sea Level PressureIn, Min Sea Level PressureIn, Max VisibilityMiles, Mean VisibilityMiles, Min VisibilityMiles, Max Wind SpeedMPH, Mean Wind SpeedMPH, Max Gust SpeedMPH,PrecipitationIn, CloudCover, Events, WindDirDegrees
2012-12-1,70,57,43,49,45,42,92,68,44,30.40,30.34,30.32,10,9,6,9,1,14,0.00,4,,132
2012-12-2,74,59,44,55,49,42,93,71,49,30.39,30.32,30.26,10,9,6,12,1,13,0.00,5,,230
2012-12-3,76,62,47,58,50,45,100,69,38,30.34,30.29,30.24,10,6,0,12,2,15,0.00,3,Fog,238
2012-12-4,75,62,48,58,52,45,89,68,46,30.35,30.27,30.22,10,10,6,13,3,22,0.00,5,,215
2012-12-5,76,64,51,57,54,50,93,70,46,30.21,30.16,30.09,10,10,7,17,6,23,0.00,5,,293
2012-12-6,61,56,50,50,43,36,77,64,50,30.23,30.18,30.15,10,10,10,16,9,20,T,7,,52
2012-12-7,57,54,50,52,44,36,100,77,54,30.16,30.08,30.01,10,8,0,9,4,13,T,8,Fog,7
2012-12-8,72,61,49,54,51,48,100,77,53,30.09,30.05,30.00,10,6,0,9,2,15,0.00,6,Fog,241
2012-12-9,71,62,52,61,57,50,100,87,73,30.13,30.07,29.98,10,6,0,10,2,17,0.00,7,Fog,234
2012-12-10,74,65,56,60,57,55,100,77,53,29.97,29.85,29.75,10,8,1,18,6,23,T,6,Rain,230
2012-12-11,66,60,54,57,50,41,100,74,48,30.09,29.90,29.75,10,8,0,10,4,12,0.00,6,Fog,290
2012-12-12,56,49,42,43,39,35,92,71,50,30.31,30.19,30.09,10,8,2,16,8,22,0.66,7,Rain,27
2012-12-13,55,47,38,39,38,35,89,72,55,30.36,30.31,30.20,10,8,2,21,6,29,0.22,6,Rain,23
2012-12-14,61,47,32,39,33,29,89,63,36,30.40,30.31,30.23,10,10,7,6,1,10,0.00,1,Fog,263
2012-12-15,61,48,35,47,38,33,92,65,37,30.26,30.18,30.10,10,9,7,8,2,12,0.00,6,,120
2012-12-16,64,58,52,58,54,46,93,85,77,30.07,30.00,29.87,10,7,2,7,2,9,0.03,8,Rain,91
2012-12-17,61,59,56,58,56,54,93,89,84,29.91,29.83,29.73,10,8,2,20,5,23,0.44,8,Rain,239
2012-12-18,64,52,40,56,46,33,93,65,36,29.99,29.83,29.73,10,10,10,23,9,30,0.00,2,,249
2012-12-19,72,53,34,43,37,31,86,58,29,30.12,30.05,29.99,10,10,10,15,4,20,0.00,1,,255
2012-12-20,72,55,38,61,46,31,92,71,49,30.10,29.88,29.62,10,10,2,39,11,51,0.19,4,Rain,181
2012-12-21,51,46,40,28,23,18,53,42,31,29.97,29.85,29.77,10,10,10,35,21,47,0.00,0,,266
2012-12-22,59,45,31,26,16,7,64,39,13,30.16,30.10,29.98,10,10,10,21,8,26,0.00,0,,260
2012-12-23,60,43,26,30,24,20,75,49,23,30.21,30.13,30.07,10,10,10,12,5,15,0.00,5,,236
2012-12-24,54,47,40,49,39,30,93,67,41,30.07,29.99,29.91,10,9,3,16,3,23,0.43,7,Rain,199
2012-12-25,54,52,50,51,49,48,96,90,83,30.08,30.00,29.93,10,8,2,10,4,13,0.16,8,Rain,49
2012-12-26,67,54,40,61,49,30,93,70,46,29.92,29.67,29.51,10,7,2,32,16,44,0.69,6,Rain-Thunderstorm,169
2012-12-27,57,46,35,35,31,29,85,62,38,30.06,29.96,29.82,10,10,9,21,7,26,0.00,3,,280
2012-12-28,52,42,32,37,32,29,89,68,46,30.17,30.08,29.94,10,10,7,8,3,10,0.00,5,,91
2012-12-29,56,48,39,45,39,28,96,74,51,30.07,29.86,29.74,10,8,2,28,12,36,0.69,5,Rain,280
2012-12-30,51,40,28,27,24,19,78,53,28,30.43,30.32,30.09,10,10,7,15,4,26,0.00,0,,271
2012-12-31,59,43,26,42,29,23,85,57,28,30.43,30.32,30.17,10,9,2,14,3,22,0.00,6,,239